This is the latest recevied weather packets stored in our database for station/object W1ERB-13. If no packets are shown the sender has not sent any weather packets the latest 10 day(s).
| Time | Temp. | Humidity | Pressure | Rain* | Wind** | Luminosity | Snow |
|---|---|---|---|---|---|---|---|
| 1778090054 | 15° C | 94% | 1007.6 hPa | 1.27 mm | - | 144 W/m² | - |
| 1778089751 | 15° C | 94% | 1007.8 hPa | 1.27 mm | - | 124 W/m² | - |
| 1778089449 | 15° C | 93% | 1007.7 hPa | 0 mm | - | 126 W/m² | - |
| 1778089146 | 15° C | 93% | 1008.1 hPa | 1.78 mm | - | 110 W/m² | - |
| 1778088843 | 15° C | 93% | 1008.2 hPa | 1.78 mm | - | 117 W/m² | - |
| 1778088540 | 15° C | 93% | 1008.2 hPa | 0 mm | - | 92 W/m² | - |
| 1778088236 | 15° C | 92% | 1008.4 hPa | 1.27 mm | - | 93 W/m² | - |
| 1778087934 | 15° C | 92% | 1008.5 hPa | 1.27 mm | - | 68 W/m² | - |
| 1778087630 | 15° C | 92% | 1008.6 hPa | 0 mm | - | 66 W/m² | - |
| 1778087328 | 15.56° C | 91% | 1008.7 hPa | 1.78 mm | - | 58 W/m² | - |
| 1778087024 | 15.56° C | 90% | 1008.7 hPa | 1.78 mm | - | 48 W/m² | - |
| 1778086724 | 15.56° C | 89% | 1008.8 hPa | 3.05 mm | - | 61 W/m² | - |
| 1778086422 | 16.11° C | 87% | 1008.8 hPa | 1.27 mm | - | 69 W/m² | - |
| 1778086118 | 16.67° C | 84% | 1009 hPa | 0 mm | - | 58 W/m² | - |
| 1778085814 | 16.67° C | 83% | 1009 hPa | 0 mm | - | 69 W/m² | - |
| 1778085512 | 17.22° C | 80% | 1008.9 hPa | 0 mm | - | 62 W/m² | - |
| 1778085206 | 17.22° C | 78% | 1008.7 hPa | 0 mm | - | 69 W/m² | - |
| 1778084901 | 17.78° C | 77% | 1008.6 hPa | 0 mm | - | 136 W/m² | - |
| 1778084600 | 17.78° C | 77% | 1008.8 hPa | 0 mm | - | 118 W/m² | - |
| 1778084297 | 18.33° C | 76% | 1008.7 hPa | 0 mm | - | 256 W/m² | - |
| 1778083994 | 17.78° C | 76% | 1008.8 hPa | 0 mm | - | 276 W/m² | - |
| 1778083692 | 17.78° C | 76% | 1008.9 hPa | 0 mm | - | 192 W/m² | - |
| 1778083388 | 18.33° C | 75% | 1009 hPa | 0 mm | - | 230 W/m² | - |
| 1778083087 | 18.33° C | 76% | 1009.3 hPa | 0 mm | - | 239 W/m² | - |
| 1778082783 | 17.78° C | 76% | 1009 hPa | 0 mm | - | 407 W/m² | - |
* Rain latest hour (hover to see other rain measurements)
** Current wind speed in m/s (hover to see current wind gust speed)